STARLINK-2031 (47648 NORAD) Tracking and Keplerian Element Data
This shows tracking and keplerian element data for the satellite.
Feedback or suggestion? Click here.
Element | Value |
Catalog | 47648 |
Name | STARLINK-2031 |
Epoch Orbit | 235 |
Epoch Day | 57.16667824 |
Epoch Year | 2021 |
RAAN | 52.0329 |
Inclination | 53.0494 |
Eccentricity | 0.000797 |
Argument of Perigee | 272.4733 |
Mean Anonmoly | 342.7735 |
Mean Motion | 15.85952848 |
Decay Rate | 0.00058437 |
L1 | 1 47648U 21012AE 21057.16667824 .00058437 00000-0 23374-3 0 9999 |
L2 | 2 47648 53.0494 52.0329 0007970 272.4733 342.7735 15.85952848 2354 |
Live tracking and technical data element details for STARLINK-2031 (NORAD 47648). STARLINK-2031 can be tracked NOW for your location showing map with azimuth and elevation plus other details from your city location.
Track the satellite on the map from your city or location and see movement details for azimuth, elevation, latitude, longitude, range, height, and movement on the map or in text.
IsCatalogInMostPopularTable: catalog: 47648, numindb: 1
Update: records affected: 1
GetName: 47648 STARLINK-2031
Hit Count: updated at: Fri, 26 Feb 2021 10:28:29 GMT